History for KNYNEWYO639

Roof of a 1 story trailer, New York, NY — Current Conditions
Daily Summary for January 20, 2019
  Current: High: Low: Average:
Temperature: 30.5°F 46.6°F 30.3°F 38.3°F
Dew Point: 23.0°F 45.0°F 23.0°F 37.7°F
Humidity: 73% 98% 73% 92%
Wind Speed: 19.6mph 30.5mph - 9.9mph
Wind Gust: 23.0mph 30.0mph - -
Wind: SW - - WSW
Pressure: 29.52in 29.88in 29.27in -
Precipitation: 0.00in      
Statistics for the rest of the month
    High: Low: Average:
Temperature:   58.3°F 19.9°F 35.4°F
Dew Point:   57.0°F 8.0°F 26.5°F
Humidity:   99.0% 36.0% 68.6%
Wind Speed:   37.3mph from the SW - 8.7mph
Wind Gust:   37.0mph from the SW - -
Wind:   - - SSW
Pressure:   30.61in 29.27in -
Precipitation:   0.00in    
KNYNEWYO639 Weather Graph
Tabular Data for January 20, 2019
Time Temp. Windchill Dew Point Pressure Wind Gust Humidity Rainfall
00:04 37.7°F 32.7°F 36.0°F 29.87in 18.0mph 93% 0.00in
00:09 37.7°F 31.9°F 36.0°F 29.87in 10.0mph 93% 0.00in
00:14 37.8°F 34.4°F 36.0°F 29.87in 9.0mph 93% 0.00in
00:19 37.9°F - 36.0°F 29.88in 14.0mph 93% 0.00in
00:24 37.9°F 29.9°F 37.0°F 29.86in 11.0mph 94% 0.00in
00:29 38.0°F - 37.0°F 29.87in 14.0mph 94% 0.00in
00:34 38.1°F 32.6°F 37.0°F 29.85in 15.0mph 94% 0.00in
00:39 38.2°F 31.3°F 37.0°F 29.82in 25.0mph 94% 0.00in
00:44 38.3°F 32.3°F 37.0°F 29.81in 19.0mph 94% 0.00in
00:49 38.3°F 31.4°F 37.0°F 29.80in 18.0mph 94% 0.00in
00:54 38.4°F - 37.0°F 29.79in 13.0mph 94% 0.00in
00:59 38.6°F 35.5°F 38.0°F 29.78in 12.0mph 94% 0.00in
01:04 38.8°F - 38.0°F 29.77in 14.0mph 94% 0.00in
01:09 38.9°F 34.7°F 38.0°F 29.78in 15.0mph 94% 0.00in
01:14 38.9°F 29.9°F 38.0°F 29.78in 22.0mph 94% 0.00in
01:19 38.9°F 33.4°F 38.0°F 29.79in 23.0mph 94% 0.00in
01:24 38.9°F 32.3°F 38.0°F 29.80in 12.0mph 94% 0.00in
01:29 38.9°F 30.5°F 38.0°F 29.80in 13.0mph 94% 0.00in
01:34 38.8°F 30.6°F 38.0°F 29.80in 18.0mph 94% 0.00in
01:39 38.7°F 31.1°F 38.0°F 29.79in 17.0mph 94% 0.00in
01:44 38.7°F 33.2°F 38.0°F 29.79in 13.0mph 95% 0.00in
01:49 38.7°F 34.4°F 38.0°F 29.79in 11.0mph 95% 0.00in
01:54 38.7°F 34.4°F 38.0°F 29.79in 5.0mph 95% 0.00in
01:59 39.0°F 32.7°F 38.0°F 29.79in 11.0mph 95% 0.00in
02:04 39.0°F 34.7°F 38.0°F 29.79in 12.0mph 95% 0.00in
02:09 38.9°F 32.1°F 38.0°F 29.78in 10.0mph 95% 0.00in
02:14 38.8°F 31.1°F 38.0°F 29.79in 16.0mph 95% 0.00in
02:19 38.7°F 31.5°F 38.0°F 29.80in 16.0mph 95% 0.00in
02:24 38.5°F 31.5°F 38.0°F 29.78in 17.0mph 95% 0.00in
02:29 38.4°F 30.5°F 37.0°F 29.80in 13.0mph 95% 0.00in
02:34 38.3°F 32.7°F 37.0°F 29.75in 17.0mph 95% 0.00in
02:39 38.3°F 33.4°F 37.0°F 29.75in 16.0mph 95% 0.00in
02:44 38.3°F 34.6°F 37.0°F 29.75in 11.0mph 95% 0.00in
02:49 38.3°F 29.7°F 37.0°F 29.71in 16.0mph 95% 0.00in
02:54 38.3°F 31.0°F 37.0°F 29.70in 18.0mph 95% 0.00in
02:59 38.3°F 33.2°F 37.0°F 29.68in 15.0mph 95% 0.00in
03:04 38.5°F 35.2°F 38.0°F 29.68in 11.0mph 95% 0.00in
03:09 38.6°F 32.2°F 38.0°F 29.69in 20.0mph 95% 0.00in
03:14 38.7°F 35.2°F 38.0°F 29.69in 12.0mph 95% 0.00in
03:19 38.8°F 33.3°F 38.0°F 29.68in 13.0mph 95% 0.00in
03:24 38.8°F 32.8°F 38.0°F 29.68in 16.0mph 95% 0.00in
03:29 38.9°F 31.8°F 38.0°F 29.66in 16.0mph 95% 0.00in
03:34 38.9°F 32.5°F 38.0°F 29.67in 17.0mph 95% 0.00in
03:39 38.9°F 31.3°F 38.0°F 29.66in 14.0mph 95% 0.00in
03:44 38.9°F - 38.0°F 29.67in 14.0mph 95% 0.00in
03:49 38.9°F 33.9°F 38.0°F 29.67in 13.0mph 95% 0.00in
03:54 38.9°F 30.0°F 38.0°F 29.66in 18.0mph 95% 0.00in
03:59 39.0°F 33.1°F 38.0°F 29.65in 16.0mph 95% 0.00in
04:04 39.1°F 34.5°F 38.0°F 29.65in 15.0mph 95% 0.00in
04:09 39.2°F 32.0°F 38.0°F 29.64in 14.0mph 95% 0.00in
04:14 39.2°F 36.2°F 38.0°F 29.62in 15.0mph 95% 0.00in
04:19 39.2°F 33.2°F 38.0°F 29.61in 11.0mph 95% 0.00in
04:24 39.3°F 33.0°F 38.0°F 29.60in 15.0mph 95% 0.00in
04:29 39.2°F 31.3°F 38.0°F 29.60in 11.0mph 95% 0.00in
04:34 39.3°F 34.2°F 38.0°F 29.60in 16.0mph 95% 0.00in
04:39 39.5°F 34.0°F 39.0°F 29.60in 17.0mph 95% 0.00in
04:44 39.6°F 35.6°F 39.0°F 29.59in 19.0mph 95% 0.00in
04:49 39.7°F 33.9°F 39.0°F 29.59in 19.0mph 95% 0.00in
04:54 39.8°F 35.5°F 39.0°F 29.58in 20.0mph 95% 0.00in
04:59 39.9°F 33.0°F 39.0°F 29.58in 19.0mph 95% 0.00in
05:04 40.0°F 34.0°F 39.0°F 29.57in 18.0mph 95% 0.00in
05:09 40.0°F 37.0°F 39.0°F 29.56in 17.0mph 95% 0.00in
05:14 39.9°F 33.2°F 39.0°F 29.56in 16.0mph 95% 0.00in
05:19 39.7°F 33.0°F 39.0°F 29.55in 13.0mph 95% 0.00in
05:24 39.6°F 35.1°F 39.0°F 29.55in 21.0mph 95% 0.00in
05:29 39.5°F 33.2°F 39.0°F 29.54in 16.0mph 95% 0.00in
05:34 39.4°F 33.0°F 38.0°F 29.52in 16.0mph 95% 0.00in
05:39 39.4°F 36.6°F 38.0°F 29.52in 23.0mph 95% 0.00in
05:44 39.6°F 32.5°F 39.0°F 29.52in 18.0mph 95% 0.00in
05:49 39.9°F 36.6°F 39.0°F 29.53in 25.0mph 95% 0.00in
05:54 40.1°F 33.3°F 39.0°F 29.52in 18.0mph 95% 0.00in
05:59 40.2°F 36.8°F 39.0°F 29.52in 18.0mph 95% 0.00in
06:04 40.2°F 35.4°F 39.0°F 29.52in 13.0mph 95% 0.00in
06:09 40.3°F 37.7°F 39.0°F 29.52in 7.0mph 95% 0.00in
06:14 40.3°F 37.7°F 39.0°F 29.52in 4.0mph 95% 0.00in
06:16 40.3°F 37.7°F 39.0°F 29.52in 4.0mph 95% 0.00in
06:54 41.3°F 36.8°F 40.0°F 29.46in 7.0mph 95% 0.00in
06:59 41.3°F 36.8°F 40.0°F 29.46in 6.0mph 95% 0.00in
07:04 41.8°F 38.3°F 41.0°F 29.46in 7.0mph 96% 0.00in
07:09 42.1°F 37.8°F 41.0°F 29.45in 10.0mph 96% 0.00in
07:14 42.1°F 37.8°F 41.0°F 29.45in 6.0mph 96% 0.00in
07:17 42.1°F 37.8°F 41.0°F 29.45in 6.0mph 96% 0.00in
07:39 41.9°F 38.0°F 41.0°F 29.41in 0.0mph 96% 0.00in
07:44 42.2°F 39.0°F 41.0°F 29.41in 13.0mph 96% 0.00in
07:49 42.9°F 40.7°F 42.0°F 29.41in 8.0mph 96% 0.00in
07:54 43.4°F - 42.0°F 29.41in 9.0mph 96% 0.00in
07:59 43.5°F 39.3°F 43.0°F 29.41in 10.0mph 95% 0.00in
08:04 43.4°F 38.3°F 42.0°F 29.42in 11.0mph 95% 0.00in
08:09 42.6°F 37.9°F 42.0°F 29.43in 10.0mph 95% 0.00in
08:14 42.2°F 40.1°F 41.0°F 29.43in 15.0mph 95% 0.00in
08:19 41.7°F 38.7°F 41.0°F 29.43in 9.0mph 95% 0.00in
08:24 41.7°F 38.7°F 41.0°F 29.43in 7.0mph 95% 0.00in
08:29 41.5°F 38.0°F 41.0°F 29.43in 4.0mph 96% 0.00in
08:34 41.5°F 35.4°F 41.0°F 29.41in 10.0mph 96% 0.00in
08:39 41.4°F 34.7°F 40.0°F 29.42in 11.0mph 96% 0.00in
08:44 41.1°F 36.0°F 40.0°F 29.39in 11.0mph 96% 0.00in
08:49 40.9°F 35.9°F 40.0°F 29.38in 9.0mph 96% 0.00in
08:54 41.2°F - 40.0°F 29.36in 12.0mph 96% 0.00in
08:59 41.6°F - 41.0°F 29.36in 4.0mph 97% 0.00in
09:04 42.1°F 38.7°F 41.0°F 29.36in 6.0mph 97% 0.00in
09:09 42.4°F 40.1°F 41.0°F 29.36in 7.0mph 97% 0.00in
09:14 42.8°F 38.6°F 42.0°F 29.35in 8.0mph 97% 0.00in
09:19 43.9°F - 43.0°F 29.33in 9.0mph 97% 0.00in
09:24 44.8°F 40.5°F 44.0°F 29.34in 17.0mph 97% 0.00in
09:29 44.8°F 42.9°F 44.0°F 29.35in 13.0mph 97% 0.00in
09:34 44.1°F 42.7°F 43.0°F 29.34in 5.0mph 97% 0.00in
09:39 43.9°F - 43.0°F 29.32in 4.0mph 97% 0.00in
09:44 43.8°F 41.7°F 43.0°F 29.32in 4.0mph 97% 0.00in
09:49 44.0°F 40.2°F 43.0°F 29.31in 6.0mph 97% 0.00in
09:54 44.0°F 40.2°F 43.0°F 29.31in 9.0mph 97% 0.00in
09:59 43.9°F 40.5°F 43.0°F 29.31in 8.0mph 97% 0.00in
10:04 43.9°F 40.7°F 43.0°F 29.31in 7.0mph 97% 0.00in
10:09 44.1°F - 43.0°F 29.30in 6.0mph 97% 0.00in
10:14 44.4°F - 43.0°F 29.29in 4.0mph 97% 0.00in
10:19 44.9°F 41.5°F 44.0°F 29.30in 8.0mph 97% 0.00in
10:24 45.1°F 40.9°F 44.0°F 29.29in 9.0mph 97% 0.00in
10:29 45.0°F 41.2°F 44.0°F 29.31in 13.0mph 97% 0.00in
10:34 44.9°F 41.8°F 44.0°F 29.30in 11.0mph 97% 0.00in
10:39 45.0°F 42.4°F 44.0°F 29.28in 7.0mph 97% 0.00in
10:44 45.3°F 43.1°F 44.0°F 29.28in 5.0mph 98% 0.00in
10:49 45.9°F - 45.0°F 29.28in 4.0mph 98% 0.00in
10:54 46.4°F - 45.0°F 29.28in 3.0mph 98% 0.00in
10:59 46.3°F 39.8°F 45.0°F 29.35in 27.0mph 97% 0.00in
11:04 44.4°F 38.2°F 43.0°F 29.36in 20.0mph 97% 0.00in
11:09 43.1°F 36.9°F 42.0°F 29.34in 20.0mph 97% 0.00in
11:14 42.2°F 36.2°F 41.0°F 29.36in 12.0mph 97% 0.00in
11:19 42.0°F 35.2°F 41.0°F 29.34in 15.0mph 97% 0.00in
11:24 41.8°F 36.6°F 41.0°F 29.32in 16.0mph 97% 0.00in
11:29 41.7°F 34.3°F 41.0°F 29.32in 11.0mph 97% 0.00in
11:34 41.7°F 33.9°F 41.0°F 29.31in 17.0mph 96% 0.00in
11:39 41.6°F 34.4°F 41.0°F 29.32in 15.0mph 96% 0.00in
11:44 41.1°F 32.9°F 40.0°F 29.32in 16.0mph 96% 0.00in
11:49 40.7°F 31.7°F 40.0°F 29.33in 19.0mph 96% 0.00in
11:54 40.4°F 32.5°F 39.0°F 29.33in 22.0mph 96% 0.00in
11:59 39.9°F 31.7°F 39.0°F 29.33in 23.0mph 95% 0.00in
12:04 39.6°F 30.2°F 39.0°F 29.33in 22.0mph 95% 0.00in
12:09 39.3°F 30.7°F 38.0°F 29.33in 21.0mph 95% 0.00in
12:14 38.9°F 30.7°F 38.0°F 29.33in 16.0mph 94% 0.00in
12:19 38.6°F 29.9°F 38.0°F 29.32in 20.0mph 94% 0.00in
12:24 38.4°F 29.3°F 36.0°F 29.32in 21.0mph 93% 0.00in
12:29 38.3°F 29.4°F 36.0°F 29.32in 22.0mph 93% 0.00in
12:34 38.3°F 28.3°F 36.0°F 29.31in 25.0mph 92% 0.00in
12:39 38.4°F 29.5°F 36.0°F 29.33in 26.0mph 91% 0.00in
12:44 38.5°F 28.8°F 37.0°F 29.33in 27.0mph 91% 0.00in
12:49 38.7°F 28.4°F 37.0°F 29.33in 25.0mph 90% 0.00in
12:54 38.9°F 30.5°F 37.0°F 29.34in 21.0mph 90% 0.00in
12:59 39.1°F 30.8°F 37.0°F 29.34in 22.0mph 90% 0.00in
13:04 39.0°F 30.9°F 37.0°F 29.34in 18.0mph 90% 0.00in
13:09 39.0°F 30.2°F 37.0°F 29.33in 17.0mph 90% 0.00in
13:14 39.1°F 32.0°F 37.0°F 29.34in 18.0mph 90% 0.00in
13:19 39.4°F 31.7°F 36.0°F 29.34in 18.0mph 89% 0.00in
13:24 39.7°F 35.1°F 37.0°F 29.36in 20.0mph 89% 0.00in
13:29 39.8°F 31.0°F 37.0°F 29.36in 14.0mph 88% 0.00in
13:34 39.7°F 30.9°F 37.0°F 29.36in 23.0mph 86% 0.00in
13:39 39.6°F 32.2°F 36.0°F 29.37in 23.0mph 85% 0.00in
13:44 39.2°F 30.6°F 35.0°F 29.39in 24.0mph 84% 0.00in
13:49 38.5°F 30.1°F 35.0°F 29.39in 23.0mph 82% 0.00in
13:54 37.9°F 28.8°F 33.0°F 29.40in 29.0mph 81% 0.00in
13:59 37.4°F 29.8°F 32.0°F 29.39in 23.0mph 81% 0.00in
14:04 37.1°F 27.5°F 32.0°F 29.39in 26.0mph 81% 0.00in
14:09 36.8°F 27.4°F 32.0°F 29.41in 24.0mph 81% 0.00in
14:14 36.3°F 25.5°F 31.0°F 29.40in 23.0mph 80% 0.00in
14:19 35.7°F 26.2°F 31.0°F 29.40in 29.0mph 80% 0.00in
14:24 35.0°F 24.1°F 29.0°F 29.40in 29.0mph 79% 0.00in
14:29 34.3°F 23.7°F 29.0°F 29.40in 29.0mph 79% 0.00in
14:34 33.7°F 22.3°F 29.0°F 29.41in 28.0mph 79% 0.00in
14:39 33.2°F 21.6°F 28.0°F 29.44in 30.0mph 78% 0.00in
14:44 32.8°F 21.0°F 28.0°F 29.44in 28.0mph 78% 0.00in
14:49 32.4°F 19.4°F 26.0°F 29.46in 28.0mph 78% 0.00in
14:54 32.0°F 21.1°F 26.0°F 29.44in 27.0mph 78% 0.00in
14:59 31.8°F 23.6°F 26.0°F 29.45in 25.0mph 77% 0.00in
15:04 31.7°F 20.4°F 26.0°F 29.47in 21.0mph 78% 0.00in
15:09 31.4°F 21.0°F 24.0°F 29.46in 21.0mph 77% 0.00in
15:14 31.1°F 18.0°F 24.0°F 29.47in 24.0mph 76% 0.00in
15:19 31.0°F 19.4°F 24.0°F 29.44in 29.0mph 76% 0.00in
15:24 31.1°F 23.5°F 24.0°F 29.46in 27.0mph 77% 0.00in
15:29 31.4°F 21.8°F 24.0°F 29.48in 21.0mph 76% 0.00in
15:34 31.6°F 21.5°F 24.0°F 29.48in 27.0mph 74% 0.00in
15:39 31.2°F 19.9°F 23.0°F 29.48in 23.0mph 73% 0.00in
15:44 30.5°F 22.3°F 24.0°F 29.47in 27.0mph 74% 0.00in
15:49 30.3°F 18.1°F 24.0°F 29.50in 23.0mph 74% 0.00in
Comma Delimited File
Powered by Weather Underground, Inc.